Year,Month,Day,Hour,Minute,Value (Times are PST for temperature in C)
2011,05,19,00,00,9.20
2011,05,19,00,01,9.20
2011,05,19,00,02,9.20
2011,05,19,00,03,9.20
2011,05,19,00,04,9.20
2011,05,19,00,05,9.20
2011,05,19,00,06,9.20
2011,05,19,00,07,9.20
2011,05,19,00,08,9.20
2011,05,19,00,09,9.20
2011,05,19,00,10,9.20
2011,05,19,00,11,9.20
2011,05,19,00,12,9.20
2011,05,19,00,13,9.30
2011,05,19,00,14,9.30
2011,05,19,00,15,9.30
2011,05,19,00,16,9.30
2011,05,19,00,17,9.30
2011,05,19,00,18,9.30
2011,05,19,00,19,9.20
2011,05,19,00,20,9.20
2011,05,19,00,21,9.20
2011,05,19,00,22,9.20
2011,05,19,00,23,9.20
2011,05,19,00,24,9.20
2011,05,19,00,25,9.20
2011,05,19,00,26,9.30
2011,05,19,00,27,9.30
2011,05,19,00,28,9.40
2011,05,19,00,29,9.40
2011,05,19,00,30,9.50
2011,05,19,00,31,9.50
2011,05,19,00,32,9.50
2011,05,19,00,33,9.50
2011,05,19,00,34,9.50
2011,05,19,00,35,9.50
2011,05,19,00,36,9.50
2011,05,19,00,37,9.40
2011,05,19,00,38,9.40
2011,05,19,00,39,9.30
2011,05,19,00,40,9.30
2011,05,19,00,41,9.20
2011,05,19,00,42,9.20
2011,05,19,00,43,9.20
2011,05,19,00,44,9.20
2011,05,19,00,45,9.10
2011,05,19,00,46,9.10
2011,05,19,00,47,9.10
2011,05,19,00,48,9.00
2011,05,19,00,49,9.00
2011,05,19,00,50,9.00
2011,05,19,00,51,9.00
2011,05,19,00,52,9.00
2011,05,19,00,53,9.00
2011,05,19,00,54,8.90
2011,05,19,00,55,8.90
2011,05,19,00,56,8.90
2011,05,19,00,57,8.90
2011,05,19,00,58,8.90
2011,05,19,00,59,8.90
2011,05,19,01,00,8.90
2011,05,19,01,01,8.90
2011,05,19,01,02,8.90
2011,05,19,01,03,8.80
2011,05,19,01,04,8.80
2011,05,19,01,05,8.80
2011,05,19,01,06,8.80
2011,05,19,01,07,8.70
2011,05,19,01,08,8.70
2011,05,19,01,09,8.70
2011,05,19,01,10,8.70
2011,05,19,01,11,8.70
2011,05,19,01,12,8.70
2011,05,19,01,13,8.70
2011,05,19,01,14,8.70
2011,05,19,01,15,8.70
2011,05,19,01,16,8.70
2011,05,19,01,17,8.70
2011,05,19,01,18,8.70
2011,05,19,01,19,8.70
2011,05,19,01,20,8.70
2011,05,19,01,21,8.70
2011,05,19,01,22,8.70
2011,05,19,01,23,8.70
2011,05,19,01,24,8.70
2011,05,19,01,25,8.70
2011,05,19,01,26,8.70
2011,05,19,01,27,8.70
2011,05,19,01,28,8.70
2011,05,19,01,29,8.70
2011,05,19,01,30,8.70
2011,05,19,01,31,8.70
2011,05,19,01,32,8.70
2011,05,19,01,33,8.70
2011,05,19,01,34,8.70
2011,05,19,01,35,8.70
2011,05,19,01,36,8.60
2011,05,19,01,37,8.60
2011,05,19,01,38,8.60
2011,05,19,01,39,8.60
2011,05,19,01,40,8.60
2011,05,19,01,41,8.60
2011,05,19,01,42,8.60
2011,05,19,01,43,8.50
2011,05,19,01,44,8.50
2011,05,19,01,45,8.50
2011,05,19,01,46,8.50
2011,05,19,01,47,8.50
2011,05,19,01,48,8.50
2011,05,19,01,49,8.40
2011,05,19,01,50,8.40
2011,05,19,01,51,8.40
2011,05,19,01,52,8.40
2011,05,19,01,53,8.30
2011,05,19,01,54,8.30
2011,05,19,01,55,8.30
2011,05,19,01,56,8.30
2011,05,19,01,57,8.20
2011,05,19,01,58,8.20
2011,05,19,01,59,8.20
2011,05,19,02,00,8.20
2011,05,19,02,01,8.20
2011,05,19,02,02,8.20
2011,05,19,02,03,8.20
2011,05,19,02,04,8.20
2011,05,19,02,05,8.20
2011,05,19,02,06,8.20
2011,05,19,02,07,8.20
2011,05,19,02,08,8.20
2011,05,19,02,09,8.20
2011,05,19,02,10,8.20
2011,05,19,02,11,8.20
2011,05,19,02,12,8.20
2011,05,19,02,13,8.20
2011,05,19,02,14,8.20
2011,05,19,02,15,8.20
2011,05,19,02,16,8.10
2011,05,19,02,17,8.10
2011,05,19,02,18,8.10
2011,05,19,02,19,8.10
2011,05,19,02,20,8.10
2011,05,19,02,21,8.10
2011,05,19,02,22,8.10
2011,05,19,02,23,8.10
2011,05,19,02,24,8.10
2011,05,19,02,25,8.10
2011,05,19,02,26,8.10
2011,05,19,02,27,8.10
2011,05,19,02,28,8.10
2011,05,19,02,29,8.10
2011,05,19,02,30,8.10
2011,05,19,02,31,8.10
2011,05,19,02,32,8.10
2011,05,19,02,33,8.10
2011,05,19,02,34,8.10
2011,05,19,02,35,8.10
2011,05,19,02,36,8.10
2011,05,19,02,37,8.10
2011,05,19,02,38,8.00
2011,05,19,02,39,8.00
2011,05,19,02,40,8.00
2011,05,19,02,41,8.00
2011,05,19,02,42,8.00
2011,05,19,02,43,8.00
2011,05,19,02,44,8.00
2011,05,19,02,45,8.00
2011,05,19,02,46,8.00
2011,05,19,02,47,8.00
2011,05,19,02,48,8.00
2011,05,19,02,49,8.00
2011,05,19,02,50,8.00
2011,05,19,02,51,8.00
2011,05,19,02,52,8.00
2011,05,19,02,53,8.00
2011,05,19,02,54,8.00
2011,05,19,02,55,8.00
2011,05,19,02,56,8.10
2011,05,19,02,57,8.10
2011,05,19,02,58,8.10
2011,05,19,02,59,8.10
2011,05,19,03,00,8.10
2011,05,19,03,01,8.10
2011,05,19,03,02,8.10
2011,05,19,03,03,8.10
2011,05,19,03,04,8.10
2011,05,19,03,05,8.10
2011,05,19,03,06,8.10
2011,05,19,03,07,8.10
2011,05,19,03,08,8.10
2011,05,19,03,09,8.10
2011,05,19,03,10,8.10
2011,05,19,03,11,8.10
2011,05,19,03,12,8.00
2011,05,19,03,13,8.00
2011,05,19,03,14,8.00
2011,05,19,03,15,8.00
2011,05,19,03,16,8.00
2011,05,19,03,17,8.00
2011,05,19,03,18,8.00
2011,05,19,03,19,7.90
2011,05,19,03,20,7.90
2011,05,19,03,21,7.90
2011,05,19,03,22,7.90
2011,05,19,03,23,7.90
2011,05,19,03,24,7.80
2011,05,19,03,25,7.80
2011,05,19,03,26,7.80
2011,05,19,03,27,7.80
2011,05,19,03,28,7.80
2011,05,19,03,29,7.80
2011,05,19,03,30,7.80
2011,05,19,03,31,7.80
2011,05,19,03,32,7.80
2011,05,19,03,33,7.80
2011,05,19,03,34,7.80
2011,05,19,03,35,7.80
2011,05,19,03,36,7.80
2011,05,19,03,37,7.80
2011,05,19,03,38,7.80
2011,05,19,03,39,7.80
2011,05,19,03,40,7.80
2011,05,19,03,41,7.80
2011,05,19,03,42,7.70
2011,05,19,03,43,7.70
2011,05,19,03,44,7.70
2011,05,19,03,45,7.60
2011,05,19,03,46,7.60
2011,05,19,03,47,7.60
2011,05,19,03,48,7.50
2011,05,19,03,49,7.50
2011,05,19,03,50,7.50
2011,05,19,03,51,7.40
2011,05,19,03,52,7.40
2011,05,19,03,53,7.40
2011,05,19,03,54,7.30
2011,05,19,03,55,7.30
2011,05,19,03,56,7.30
2011,05,19,03,57,7.30
2011,05,19,03,58,7.30
2011,05,19,03,59,7.30
2011,05,19,04,00,7.30
2011,05,19,04,01,7.30
2011,05,19,04,02,7.30
2011,05,19,04,03,7.30
2011,05,19,04,04,7.30
2011,05,19,04,05,7.30
2011,05,19,04,06,7.30
2011,05,19,04,07,7.30
2011,05,19,04,08,7.30
2011,05,19,04,09,7.20
2011,05,19,04,10,7.20
2011,05,19,04,11,7.20
2011,05,19,04,12,7.20
2011,05,19,04,13,7.20
2011,05,19,04,14,7.10
2011,05,19,04,15,7.10
2011,05,19,04,16,7.10
2011,05,19,04,17,7.10
2011,05,19,04,18,7.00
2011,05,19,04,19,7.00
2011,05,19,04,20,7.00
2011,05,19,04,21,7.00
2011,05,19,04,22,7.00
2011,05,19,04,23,7.00
2011,05,19,04,24,7.00
2011,05,19,04,25,7.00
2011,05,19,04,26,7.00
2011,05,19,04,27,7.00
2011,05,19,04,28,7.00
2011,05,19,04,29,7.00
2011,05,19,04,30,7.00
2011,05,19,04,31,7.00
2011,05,19,04,32,7.00
2011,05,19,04,33,7.00
2011,05,19,04,34,7.00
2011,05,19,04,35,7.00
2011,05,19,04,36,7.00
2011,05,19,04,37,7.00
2011,05,19,04,38,7.00
2011,05,19,04,39,7.00
2011,05,19,04,40,7.00
2011,05,19,04,41,7.00
2011,05,19,04,42,7.00
2011,05,19,04,43,6.90
2011,05,19,04,44,6.90
2011,05,19,04,45,6.90
2011,05,19,04,46,6.90
2011,05,19,04,47,6.90
2011,05,19,04,48,6.90
2011,05,19,04,49,6.90
2011,05,19,04,50,6.90
2011,05,19,04,51,6.90
2011,05,19,04,52,6.90
2011,05,19,04,53,6.90
2011,05,19,04,54,6.90
2011,05,19,04,55,6.90
2011,05,19,04,56,7.00
2011,05,19,04,57,7.00
2011,05,19,04,58,7.00
2011,05,19,04,59,7.00
2011,05,19,05,00,7.00
2011,05,19,05,01,7.10
2011,05,19,05,02,7.10
2011,05,19,05,03,7.10
2011,05,19,05,04,7.10
2011,05,19,05,05,7.10
2011,05,19,05,06,7.10
2011,05,19,05,07,7.00
2011,05,19,05,08,7.00
2011,05,19,05,09,7.00
2011,05,19,05,10,7.00
2011,05,19,05,11,7.00
2011,05,19,05,12,7.00
2011,05,19,05,13,6.90
2011,05,19,05,14,6.90
2011,05,19,05,15,6.90
2011,05,19,05,16,6.90
2011,05,19,05,17,6.90
2011,05,19,05,18,6.90
2011,05,19,05,19,6.90
2011,05,19,05,20,6.80
2011,05,19,05,21,6.80
2011,05,19,05,22,6.80
2011,05,19,05,23,6.80
2011,05,19,05,24,6.80
2011,05,19,05,25,6.80
2011,05,19,05,26,6.80
2011,05,19,05,27,6.80
2011,05,19,05,28,6.80
2011,05,19,05,29,6.80
2011,05,19,05,30,6.80
2011,05,19,05,31,6.80
2011,05,19,05,32,6.90
2011,05,19,05,33,6.90
2011,05,19,05,34,6.90
2011,05,19,05,35,6.90
2011,05,19,05,36,6.90
2011,05,19,05,37,6.90
2011,05,19,05,38,6.90
2011,05,19,05,39,6.80
2011,05,19,05,40,6.80
2011,05,19,05,41,6.80
2011,05,19,05,42,6.80
2011,05,19,05,43,6.80
2011,05,19,05,44,6.80
2011,05,19,05,45,6.90
2011,05,19,05,46,6.90
2011,05,19,05,47,7.00
2011,05,19,05,48,7.00
2011,05,19,05,49,7.00
2011,05,19,05,50,7.00
2011,05,19,05,51,7.10
2011,05,19,05,52,7.10
2011,05,19,05,53,7.10
2011,05,19,05,54,7.10
2011,05,19,05,55,7.10
2011,05,19,05,56,7.10
2011,05,19,05,57,7.10
2011,05,19,05,58,7.00
2011,05,19,05,59,7.00
2011,05,19,06,00,7.00
2011,05,19,06,01,7.00
2011,05,19,06,02,7.00
2011,05,19,06,03,7.00
2011,05,19,06,04,7.00
2011,05,19,06,05,7.00
2011,05,19,06,06,7.00
2011,05,19,06,07,7.00
2011,05,19,06,08,7.00
2011,05,19,06,09,6.90
2011,05,19,06,10,6.90
2011,05,19,06,11,6.90
2011,05,19,06,12,6.90
2011,05,19,06,13,6.90
2011,05,19,06,14,6.90
2011,05,19,06,15,6.90
2011,05,19,06,16,7.00
2011,05,19,06,17,7.00
2011,05,19,06,18,7.00
2011,05,19,06,19,7.00
2011,05,19,06,20,7.00
2011,05,19,06,21,7.00
2011,05,19,06,22,7.10
2011,05,19,06,23,7.10
2011,05,19,06,24,7.10
2011,05,19,06,25,7.20
2011,05,19,06,26,7.20
2011,05,19,06,27,7.30
2011,05,19,06,28,7.30
2011,05,19,06,29,7.30
2011,05,19,06,30,7.30
2011,05,19,06,31,7.40
2011,05,19,06,32,7.50
2011,05,19,06,33,7.50
2011,05,19,06,34,7.60
2011,05,19,06,35,7.70
2011,05,19,06,36,7.70
2011,05,19,06,37,7.70
2011,05,19,06,38,7.70
2011,05,19,06,39,7.80
2011,05,19,06,40,7.80
2011,05,19,06,41,7.80
2011,05,19,06,42,7.80
2011,05,19,06,43,7.80
2011,05,19,06,44,7.90
2011,05,19,06,45,8.00
2011,05,19,06,46,8.00
2011,05,19,06,47,8.10
2011,05,19,06,48,8.20
2011,05,19,06,49,8.20
2011,05,19,06,50,8.20
2011,05,19,06,51,8.30
2011,05,19,06,52,8.30
2011,05,19,06,53,8.30
2011,05,19,06,54,8.30
2011,05,19,06,55,8.40
2011,05,19,06,56,8.40
2011,05,19,06,57,8.50
2011,05,19,06,58,8.60
2011,05,19,06,59,8.70
2011,05,19,07,00,8.80
2011,05,19,07,01,8.90
2011,05,19,07,02,9.00
2011,05,19,07,03,9.10
2011,05,19,07,04,9.10
2011,05,19,07,05,9.10
2011,05,19,07,06,9.10
2011,05,19,07,07,9.10
2011,05,19,07,08,9.10
2011,05,19,07,09,9.10
2011,05,19,07,10,9.10
2011,05,19,07,11,9.20
2011,05,19,07,12,9.20
2011,05,19,07,13,9.30
2011,05,19,07,14,9.30
2011,05,19,07,15,9.40
2011,05,19,07,16,9.40
2011,05,19,07,17,9.40
2011,05,19,07,18,9.50
2011,05,19,07,19,9.60
2011,05,19,07,20,9.60
2011,05,19,07,21,9.70
2011,05,19,07,22,9.70
2011,05,19,07,23,9.80
2011,05,19,07,24,9.90
2011,05,19,07,25,10.00
2011,05,19,07,26,10.10
2011,05,19,07,27,10.20
2011,05,19,07,28,10.30
2011,05,19,07,29,10.40
2011,05,19,07,30,10.50
2011,05,19,07,31,10.60
2011,05,19,07,32,10.70
2011,05,19,07,33,10.80
2011,05,19,07,34,10.90
2011,05,19,07,35,10.90
2011,05,19,07,36,10.90
2011,05,19,07,37,10.80
2011,05,19,07,38,10.80
2011,05,19,07,39,10.70
2011,05,19,07,40,10.70
2011,05,19,07,41,10.60
2011,05,19,07,42,10.60
2011,05,19,07,43,10.40
2011,05,19,07,44,10.40
2011,05,19,07,45,10.40
2011,05,19,07,46,10.40
2011,05,19,07,47,10.30
2011,05,19,07,48,10.30
2011,05,19,07,49,10.20
2011,05,19,07,50,10.10
2011,05,19,07,51,10.10
2011,05,19,07,52,10.10
2011,05,19,07,53,10.00
2011,05,19,07,54,10.10
2011,05,19,07,55,10.10
2011,05,19,07,56,10.10
2011,05,19,07,57,10.10
2011,05,19,07,58,10.10
2011,05,19,07,59,10.10
2011,05,19,08,00,10.20
2011,05,19,08,01,10.10
2011,05,19,08,02,10.10
2011,05,19,08,03,10.10
2011,05,19,08,04,10.10
2011,05,19,08,05,10.10
2011,05,19,08,06,10.10
2011,05,19,08,07,10.10
2011,05,19,08,08,10.10
2011,05,19,08,09,10.10
2011,05,19,08,10,10.10
2011,05,19,08,11,10.10
2011,05,19,08,12,10.10
2011,05,19,08,13,10.10
2011,05,19,08,14,10.10
2011,05,19,08,15,10.10
2011,05,19,08,16,10.10
2011,05,19,08,17,10.10
2011,05,19,08,18,10.10
2011,05,19,08,19,10.10
2011,05,19,08,20,10.10
2011,05,19,08,21,10.10
2011,05,19,08,22,10.10
2011,05,19,08,23,10.10
2011,05,19,08,24,10.10
2011,05,19,08,25,10.20
2011,05,19,08,26,10.20
2011,05,19,08,27,10.20
2011,05,19,08,28,10.20
2011,05,19,08,29,10.30
2011,05,19,08,30,10.30
2011,05,19,08,31,10.30
2011,05,19,08,32,10.30
2011,05,19,08,33,10.40
2011,05,19,08,34,10.30
2011,05,19,08,35,10.30
2011,05,19,08,36,10.30
2011,05,19,08,37,10.30
2011,05,19,08,38,10.30
2011,05,19,08,39,10.40
2011,05,19,08,40,10.40
2011,05,19,08,41,10.40
2011,05,19,08,42,10.40
2011,05,19,08,43,10.40
2011,05,19,08,44,10.50
2011,05,19,08,45,10.60
2011,05,19,08,46,10.60
2011,05,19,08,47,10.70
2011,05,19,08,48,10.70
2011,05,19,08,49,10.80
2011,05,19,08,50,10.80
2011,05,19,08,51,10.90
2011,05,19,08,52,10.90
2011,05,19,08,53,10.90
2011,05,19,08,54,11.00
2011,05,19,08,55,11.10
2011,05,19,08,56,11.20
2011,05,19,08,57,11.30
2011,05,19,08,58,11.30
2011,05,19,08,59,11.40
2011,05,19,09,00,11.50
2011,05,19,09,01,11.60
2011,05,19,09,02,11.70
2011,05,19,09,03,11.80
2011,05,19,09,04,11.90
2011,05,19,09,05,12.00
2011,05,19,09,06,12.10
2011,05,19,09,07,12.10
2011,05,19,09,08,12.20
2011,05,19,09,09,12.30
2011,05,19,09,10,12.50
2011,05,19,09,11,12.50
2011,05,19,09,12,12.50
2011,05,19,09,13,12.50
2011,05,19,09,14,12.50
2011,05,19,09,15,12.50
2011,05,19,09,16,12.40
2011,05,19,09,17,12.30
2011,05,19,09,18,12.30
2011,05,19,09,19,12.30
2011,05,19,09,20,12.30
2011,05,19,09,21,12.30
2011,05,19,09,22,12.30
2011,05,19,09,23,12.30
2011,05,19,09,24,12.30
2011,05,19,09,25,12.30
2011,05,19,09,26,12.30
2011,05,19,09,27,12.30
2011,05,19,09,28,12.30
2011,05,19,09,29,12.40
2011,05,19,09,30,12.50
2011,05,19,09,31,12.50
2011,05,19,09,32,12.50
2011,05,19,09,33,12.50
2011,05,19,09,34,12.50
2011,05,19,09,35,12.50
2011,05,19,09,36,12.40
2011,05,19,09,37,12.40
2011,05,19,09,38,12.40
2011,05,19,09,39,12.40
2011,05,19,09,40,12.30
2011,05,19,09,41,12.30
2011,05,19,09,42,12.30
2011,05,19,09,43,12.40
2011,05,19,09,44,12.40
2011,05,19,09,45,12.40
2011,05,19,09,46,12.50
2011,05,19,09,47,12.50
2011,05,19,09,48,12.50
2011,05,19,09,49,12.60
2011,05,19,09,50,12.70
2011,05,19,09,51,12.80
2011,05,19,09,52,12.80
2011,05,19,09,53,12.70
2011,05,19,09,54,12.60
2011,05,19,09,55,12.50
2011,05,19,09,56,12.40
2011,05,19,09,57,12.30
2011,05,19,09,58,12.30
2011,05,19,09,59,12.30
2011,05,19,10,00,12.30
2011,05,19,10,01,12.50
2011,05,19,10,02,12.60
2011,05,19,10,03,12.60
2011,05,19,10,04,12.70
2011,05,19,10,05,12.70
2011,05,19,10,06,12.70
2011,05,19,10,07,12.70
2011,05,19,10,08,12.70
2011,05,19,10,09,12.70
2011,05,19,10,10,12.60
2011,05,19,10,11,12.70
2011,05,19,10,12,12.70
2011,05,19,10,13,12.60
2011,05,19,10,14,12.60
2011,05,19,10,15,12.60
2011,05,19,10,16,12.70
2011,05,19,10,17,12.70
2011,05,19,10,18,12.70
2011,05,19,10,19,12.80
2011,05,19,10,20,12.80
2011,05,19,10,21,12.80
2011,05,19,10,22,13.00
2011,05,19,10,23,13.10
2011,05,19,10,24,13.20
2011,05,19,10,25,13.20
2011,05,19,10,26,13.10
2011,05,19,10,27,13.00
2011,05,19,10,28,13.00
2011,05,19,10,29,12.80
2011,05,19,10,30,12.80
2011,05,19,10,31,12.80
2011,05,19,10,32,12.80
2011,05,19,10,33,12.80
2011,05,19,10,34,12.80
2011,05,19,10,35,12.80
2011,05,19,10,36,12.80
2011,05,19,10,37,12.90
2011,05,19,10,38,12.90
2011,05,19,10,39,12.90
2011,05,19,10,40,13.00
2011,05,19,10,41,13.00
2011,05,19,10,42,13.00
2011,05,19,10,43,13.00
2011,05,19,10,44,12.90
2011,05,19,10,45,12.90
2011,05,19,10,46,13.00
2011,05,19,10,47,13.00
2011,05,19,10,48,13.10
2011,05,19,10,49,13.20
2011,05,19,10,50,13.20
2011,05,19,10,51,13.20
2011,05,19,10,52,13.30
2011,05,19,10,53,13.30
2011,05,19,10,54,13.40
2011,05,19,10,55,13.40
2011,05,19,10,56,13.40
2011,05,19,10,57,13.40
2011,05,19,10,58,13.50
2011,05,19,10,59,13.60
2011,05,19,11,00,13.60
2011,05,19,11,01,13.70
2011,05,19,11,02,13.70
2011,05,19,11,03,13.60
2011,05,19,11,04,13.70
2011,05,19,11,05,13.70
2011,05,19,11,06,13.80
2011,05,19,11,07,13.90
2011,05,19,11,08,14.00
2011,05,19,11,09,14.10
2011,05,19,11,10,14.10
2011,05,19,11,11,14.00
2011,05,19,11,12,14.00
2011,05,19,11,13,13.90
2011,05,19,11,14,13.80
2011,05,19,11,15,13.70
2011,05,19,11,16,13.60
2011,05,19,11,17,13.60
2011,05,19,11,18,13.50
2011,05,19,11,19,13.40
2011,05,19,11,20,13.40
2011,05,19,11,21,13.30
2011,05,19,11,22,13.30
2011,05,19,11,23,13.30
2011,05,19,11,24,13.30
2011,05,19,11,25,13.30
2011,05,19,11,26,13.30
2011,05,19,11,27,13.40
2011,05,19,11,28,13.50
2011,05,19,11,29,13.50
2011,05,19,11,30,13.60
2011,05,19,11,31,13.60
2011,05,19,11,32,13.70
2011,05,19,11,33,13.70
2011,05,19,11,34,13.70
2011,05,19,11,35,13.60
2011,05,19,11,36,13.70
2011,05,19,11,37,13.70
2011,05,19,11,38,13.70
2011,05,19,11,39,13.60
2011,05,19,11,40,13.40
2011,05,19,11,41,13.30
2011,05,19,11,42,13.20
2011,05,19,11,43,13.20
2011,05,19,11,44,13.10
2011,05,19,11,45,13.10
2011,05,19,11,46,13.10
2011,05,19,11,47,13.20
2011,05,19,11,48,13.30
2011,05,19,11,49,13.20
2011,05,19,11,50,13.30
2011,05,19,11,51,13.20
2011,05,19,11,52,13.20
2011,05,19,11,53,13.20
2011,05,19,11,54,13.30
2011,05,19,11,55,13.20
2011,05,19,11,56,13.20
2011,05,19,11,57,13.20
2011,05,19,11,58,13.20
2011,05,19,11,59,13.20
2011,05,19,12,00,13.20
2011,05,19,12,01,13.20
2011,05,19,12,02,13.30
2011,05,19,12,03,13.30
2011,05,19,12,04,13.40
2011,05,19,12,05,13.50
2011,05,19,12,06,13.60
2011,05,19,12,07,13.70
2011,05,19,12,08,13.80
2011,05,19,12,09,13.90
2011,05,19,12,10,13.90
2011,05,19,12,11,14.00
2011,05,19,12,12,14.10
2011,05,19,12,13,14.00
2011,05,19,12,14,14.10
2011,05,19,12,15,14.10
2011,05,19,12,16,14.10
2011,05,19,12,17,14.10
2011,05,19,12,18,14.10
2011,05,19,12,19,14.00
2011,05,19,12,20,14.00
2011,05,19,12,21,14.10
2011,05,19,12,22,14.20
2011,05,19,12,23,14.20
2011,05,19,12,24,14.20
2011,05,19,12,25,14.20
2011,05,19,12,26,14.20
2011,05,19,12,27,14.20
2011,05,19,12,28,14.20
2011,05,19,12,29,14.20
2011,05,19,12,30,14.30
2011,05,19,12,31,14.40
2011,05,19,12,32,14.50
2011,05,19,12,33,14.60
2011,05,19,12,34,14.70
2011,05,19,12,35,14.70
2011,05,19,12,36,14.70
2011,05,19,12,37,14.70
2011,05,19,12,38,14.80
2011,05,19,12,39,14.80
2011,05,19,12,40,14.90
2011,05,19,12,41,15.00
2011,05,19,12,42,15.10
2011,05,19,12,43,15.30
2011,05,19,12,44,15.30
2011,05,19,12,45,15.30
2011,05,19,12,46,15.30
2011,05,19,12,47,15.40
2011,05,19,12,48,15.50
2011,05,19,12,49,15.60
2011,05,19,12,50,15.60
2011,05,19,12,51,15.80
2011,05,19,12,52,15.80
2011,05,19,12,53,15.80
2011,05,19,12,54,15.80
2011,05,19,12,55,15.80
2011,05,19,12,56,15.70
2011,05,19,12,57,15.60
2011,05,19,12,58,15.60
2011,05,19,12,59,15.60
2011,05,19,13,00,15.60
2011,05,19,13,01,15.60
2011,05,19,13,02,15.60
2011,05,19,13,03,15.70
2011,05,19,13,04,15.80
2011,05,19,13,05,15.80
2011,05,19,13,06,15.90
2011,05,19,13,07,16.00
2011,05,19,13,08,16.10
2011,05,19,13,09,16.10
2011,05,19,13,10,16.20
2011,05,19,13,11,16.30
2011,05,19,13,12,16.30
2011,05,19,13,13,16.20
2011,05,19,13,14,16.20
2011,05,19,13,15,16.20
2011,05,19,13,16,16.10
2011,05,19,13,17,16.20
2011,05,19,13,18,16.20
2011,05,19,13,19,16.30
2011,05,19,13,20,16.30
2011,05,19,13,21,16.30
2011,05,19,13,22,16.20
2011,05,19,13,23,16.10
2011,05,19,13,24,16.00
2011,05,19,13,25,15.80
2011,05,19,13,26,15.90
2011,05,19,13,27,15.90
2011,05,19,13,28,16.10
2011,05,19,13,29,16.10
2011,05,19,13,30,16.20
2011,05,19,13,31,16.20
2011,05,19,13,32,16.30
2011,05,19,13,33,16.20
2011,05,19,13,34,16.20
2011,05,19,13,35,16.20
2011,05,19,13,36,16.20
2011,05,19,13,37,16.30
2011,05,19,13,38,16.30
2011,05,19,13,39,16.20
2011,05,19,13,40,16.30
2011,05,19,13,41,16.30
2011,05,19,13,42,16.40
2011,05,19,13,43,16.40
2011,05,19,13,44,16.40
2011,05,19,13,45,16.50
2011,05,19,13,46,16.60
2011,05,19,13,47,16.60
2011,05,19,13,48,16.70
2011,05,19,13,49,16.80
2011,05,19,13,50,16.90
2011,05,19,13,51,17.00
2011,05,19,13,52,17.00
2011,05,19,13,53,16.90
2011,05,19,13,54,16.90
2011,05,19,13,55,16.70
2011,05,19,13,56,16.70
2011,05,19,13,57,16.70
2011,05,19,13,58,16.80
2011,05,19,13,59,16.80
2011,05,19,14,00,16.90
2011,05,19,14,01,16.90
2011,05,19,14,02,16.90
2011,05,19,14,03,16.90
2011,05,19,14,04,16.90
2011,05,19,14,05,16.90
2011,05,19,14,06,16.90
2011,05,19,14,07,16.90
2011,05,19,14,08,17.00
2011,05,19,14,09,17.10
2011,05,19,14,10,17.30
2011,05,19,14,11,17.30
2011,05,19,14,12,17.30
2011,05,19,14,13,17.40
2011,05,19,14,14,17.50
2011,05,19,14,15,17.50
2011,05,19,14,16,17.50
2011,05,19,14,17,17.40
2011,05,19,14,18,17.30
2011,05,19,14,19,17.30
2011,05,19,14,20,17.30
2011,05,19,14,21,17.30
2011,05,19,14,22,17.30
2011,05,19,14,23,17.30
2011,05,19,14,24,17.40
2011,05,19,14,25,17.40
2011,05,19,14,26,17.40
2011,05,19,14,27,17.40
2011,05,19,14,28,17.40
2011,05,19,14,29,17.40
2011,05,19,14,30,17.40
2011,05,19,14,31,17.40
2011,05,19,14,32,17.40
2011,05,19,14,33,17.50
2011,05,19,14,34,17.50
2011,05,19,14,35,17.50
2011,05,19,14,36,17.60
2011,05,19,14,37,17.70
2011,05,19,14,38,17.70
2011,05,19,14,39,17.60
2011,05,19,14,40,17.60
2011,05,19,14,41,17.60
2011,05,19,14,42,17.50
2011,05,19,14,43,17.40
2011,05,19,14,44,17.40
2011,05,19,14,45,17.40
2011,05,19,14,46,17.50
2011,05,19,14,47,17.50
2011,05,19,14,48,17.40
2011,05,19,14,49,17.20
2011,05,19,14,50,17.10
2011,05,19,14,51,17.10
2011,05,19,14,52,17.20
2011,05,19,14,53,17.30
2011,05,19,14,54,17.30
2011,05,19,14,55,17.40
2011,05,19,14,56,17.50
2011,05,19,14,57,17.60
2011,05,19,14,58,17.70
2011,05,19,14,59,17.80
2011,05,19,15,00,17.80
2011,05,19,15,01,17.90
2011,05,19,15,02,17.90
2011,05,19,15,03,17.90
2011,05,19,15,04,17.80
2011,05,19,15,05,17.70
2011,05,19,15,06,17.70
2011,05,19,15,07,17.60
2011,05,19,15,08,17.60
2011,05,19,15,09,17.50
2011,05,19,15,10,17.40
2011,05,19,15,11,17.30
2011,05,19,15,12,17.30
2011,05,19,15,13,17.30
2011,05,19,15,14,17.40
2011,05,19,15,15,17.50
2011,05,19,15,16,17.60
2011,05,19,15,17,17.70
2011,05,19,15,18,17.80
2011,05,19,15,19,18.00
2011,05,19,15,20,18.20
2011,05,19,15,21,18.30
2011,05,19,15,22,18.40
2011,05,19,15,23,18.50
2011,05,19,15,24,18.60
2011,05,19,15,25,18.60
2011,05,19,15,26,18.70
2011,05,19,15,27,18.80
2011,05,19,15,28,18.80
2011,05,19,15,29,18.90
2011,05,19,15,30,18.90
2011,05,19,15,31,18.90
2011,05,19,15,32,18.90
2011,05,19,15,33,18.80
2011,05,19,15,34,18.70
2011,05,19,15,35,18.80
2011,05,19,15,36,18.80
2011,05,19,15,37,18.90
2011,05,19,15,38,19.00
2011,05,19,15,39,19.10
2011,05,19,15,40,19.10
2011,05,19,15,41,19.20
2011,05,19,15,42,19.20
2011,05,19,15,43,19.20
2011,05,19,15,44,19.10
2011,05,19,15,45,19.10
2011,05,19,15,46,19.10
2011,05,19,15,47,19.10
2011,05,19,15,48,19.20
2011,05,19,15,49,19.30
2011,05,19,15,50,19.30
2011,05,19,15,51,19.30
2011,05,19,15,52,19.30
2011,05,19,15,53,19.30
2011,05,19,15,54,19.30
2011,05,19,15,55,19.40
2011,05,19,15,56,19.40
2011,05,19,15,57,19.50
2011,05,19,15,58,19.40
2011,05,19,15,59,19.20
2011,05,19,16,00,19.10
2011,05,19,16,01,18.90
2011,05,19,16,02,18.90
2011,05,19,16,03,18.90
2011,05,19,16,04,18.90
2011,05,19,16,05,19.00
2011,05,19,16,06,19.10
2011,05,19,16,07,19.20
2011,05,19,16,08,19.30
2011,05,19,16,09,19.30
2011,05,19,16,10,19.30
2011,05,19,16,11,19.30
2011,05,19,16,12,19.30
2011,05,19,16,13,19.30
2011,05,19,16,14,19.30
2011,05,19,16,15,19.20
2011,05,19,16,16,19.10
2011,05,19,16,17,19.10
2011,05,19,16,18,19.00
2011,05,19,16,19,19.00
2011,05,19,16,20,19.10
2011,05,19,16,21,19.10
2011,05,19,16,22,19.10
2011,05,19,16,23,19.10
2011,05,19,16,24,19.10
2011,05,19,16,25,19.10
2011,05,19,16,26,19.20
2011,05,19,16,27,19.20
2011,05,19,16,28,19.30
2011,05,19,16,29,19.30
2011,05,19,16,30,19.20
2011,05,19,16,31,19.30
2011,05,19,16,32,19.20
2011,05,19,16,33,19.10
2011,05,19,16,34,19.10
2011,05,19,16,35,19.10
2011,05,19,16,36,19.10
2011,05,19,16,37,19.20
2011,05,19,16,38,19.30
2011,05,19,16,39,19.40
2011,05,19,16,40,19.50
2011,05,19,16,41,19.60
2011,05,19,16,42,19.60
2011,05,19,16,43,19.60
2011,05,19,16,44,19.70
2011,05,19,16,45,19.70
2011,05,19,16,46,19.80
2011,05,19,16,47,19.80
2011,05,19,16,48,19.90
2011,05,19,16,49,19.90
2011,05,19,16,50,19.90
2011,05,19,16,51,19.90
2011,05,19,16,52,20.00
2011,05,19,16,53,20.20
2011,05,19,16,54,20.20
2011,05,19,16,55,20.20
2011,05,19,16,56,20.20
2011,05,19,16,57,20.20
2011,05,19,16,58,20.20
2011,05,19,16,59,20.20
2011,05,19,17,00,20.10
2011,05,19,17,01,20.00
2011,05,19,17,02,19.90
2011,05,19,17,03,19.80
2011,05,19,17,04,19.60
2011,05,19,17,05,19.50
2011,05,19,17,06,19.50
2011,05,19,17,07,19.50
2011,05,19,17,08,19.40
2011,05,19,17,09,19.40
2011,05,19,17,10,19.30
2011,05,19,17,11,19.20
2011,05,19,17,12,19.10
2011,05,19,17,13,19.10
2011,05,19,17,14,19.10
2011,05,19,17,15,19.10
2011,05,19,17,16,19.10
2011,05,19,17,17,19.20
2011,05,19,17,18,19.30
2011,05,19,17,19,19.40
2011,05,19,17,20,19.30
2011,05,19,17,21,19.20
2011,05,19,17,22,19.10
2011,05,19,17,23,19.10
2011,05,19,17,24,19.10
2011,05,19,17,25,19.20
2011,05,19,17,26,19.30
2011,05,19,17,27,19.30
2011,05,19,17,28,19.40
2011,05,19,17,29,19.50
2011,05,19,17,30,19.50
2011,05,19,17,31,19.60
2011,05,19,17,32,19.60
2011,05,19,17,33,19.60
2011,05,19,17,34,19.60
2011,05,19,17,35,19.50
2011,05,19,17,36,19.40
2011,05,19,17,37,19.30
2011,05,19,17,38,19.20